Time,TemperatureF,DewpointF,PressureIn,WindDirection,WindDirectionDegrees,WindSpeedMPH,WindSpeedGustMPH,Humidity,HourlyPrecipIn,Conditions,Clouds,dailyrainin,SoftwareType,DateUTC
2013-03-19 00:00:00,53.8,0.0,30.11,SE,143,0.0,0.0,0,0.00,,,0.00,WUHU216PEETBRO,2013-03-19 07:00:00,
2013-03-19 00:05:00,53.7,0.0,30.11,SE,143,0.0,0.0,0,0.00,,,0.00,WUHU216PEETBRO,2013-03-19 07:05:00,
2013-03-19 00:10:00,53.6,0.0,30.11,SE,143,0.0,0.0,0,0.00,,,0.00,WUHU216PEETBRO,2013-03-19 07:10:00,
2013-03-19 00:15:00,53.6,0.0,30.11,SE,143,0.0,0.0,0,0.00,,,0.00,WUHU216PEETBRO,2013-03-19 07:15:00,
2013-03-19 00:20:00,53.6,0.0,30.11,SE,143,0.0,0.0,0,0.00,,,0.00,WUHU216PEETBRO,2013-03-19 07:20:00,
2013-03-19 00:25:00,53.7,0.0,30.11,SE,143,0.0,0.0,0,0.00,,,0.00,WUHU216PEETBRO,2013-03-19 07:25:00,
2013-03-19 00:30:00,53.6,0.0,30.11,SE,143,0.0,0.0,0,0.00,,,0.00,WUHU216PEETBRO,2013-03-19 07:30:00,
2013-03-19 00:35:00,53.7,0.0,30.11,SE,143,0.0,0.0,0,0.00,,,0.00,WUHU216PEETBRO,2013-03-19 07:35:00,
2013-03-19 00:40:00,53.9,0.0,30.11,SE,143,0.0,0.0,0,0.00,,,0.00,WUHU216PEETBRO,2013-03-19 07:40:00,
2013-03-19 00:45:00,53.9,0.0,30.11,SE,143,0.0,0.0,0,0.00,,,0.00,WUHU216PEETBRO,2013-03-19 07:45:00,
2013-03-19 00:50:00,53.7,0.0,30.11,SE,143,0.0,0.0,0,0.00,,,0.00,WUHU216PEETBRO,2013-03-19 07:50:00,
2013-03-19 00:55:00,53.7,0.0,30.10,SE,143,0.0,0.0,0,0.00,,,0.00,WUHU216PEETBRO,2013-03-19 07:55:00,
2013-03-19 01:00:00,53.6,0.0,30.10,SE,143,0.0,0.0,0,0.00,,,0.00,WUHU216PEETBRO,2013-03-19 08:00:00,
2013-03-19 01:05:00,53.5,0.0,30.10,SE,143,0.0,0.0,0,0.00,,,0.00,WUHU216PEETBRO,2013-03-19 08:05:00,
2013-03-19 01:10:00,53.6,0.0,30.10,SE,143,0.0,0.0,0,0.00,,,0.00,WUHU216PEETBRO,2013-03-19 08:10:00,
2013-03-19 01:15:00,53.7,0.0,30.10,SE,143,0.0,0.0,0,0.00,,,0.00,WUHU216PEETBRO,2013-03-19 08:15:00,
2013-03-19 01:20:00,53.6,0.0,30.10,SE,143,0.0,0.0,0,0.00,,,0.00,WUHU216PEETBRO,2013-03-19 08:20:00,
2013-03-19 01:25:00,53.5,0.0,30.09,SE,143,0.0,0.0,0,0.00,,,0.00,WUHU216PEETBRO,2013-03-19 08:25:00,
2013-03-19 01:30:00,53.5,0.0,30.09,SE,143,0.0,0.0,0,0.00,,,0.00,WUHU216PEETBRO,2013-03-19 08:30:00,
2013-03-19 01:35:00,53.3,0.0,30.09,SE,143,0.0,0.0,0,0.00,,,0.00,WUHU216PEETBRO,2013-03-19 08:35:00,
2013-03-19 01:40:00,53.3,0.0,30.09,SE,143,0.0,0.0,0,0.00,,,0.00,WUHU216PEETBRO,2013-03-19 08:40:00,
2013-03-19 01:45:00,53.2,0.0,30.09,SE,143,0.0,0.0,0,0.00,,,0.00,WUHU216PEETBRO,2013-03-19 08:45:00,
2013-03-19 01:50:00,53.1,0.0,30.09,NNE,23,0.0,3.3,0,0.00,,,0.00,WUHU216PEETBRO,2013-03-19 08:50:00,
2013-03-19 01:55:00,53.1,0.0,30.09,NNE,23,0.0,3.3,0,0.00,,,0.00,WUHU216PEETBRO,2013-03-19 08:55:00,
2013-03-19 02:00:00,53.0,0.0,30.09,NNE,23,0.0,0.0,0,0.00,,,0.00,WUHU216PEETBRO,2013-03-19 09:00:00,
2013-03-19 02:05:00,53.0,0.0,30.09,NNE,23,0.0,0.0,0,0.00,,,0.00,WUHU216PEETBRO,2013-03-19 09:05:00,
2013-03-19 02:10:00,53.1,0.0,30.09,NNE,23,0.0,0.0,0,0.00,,,0.00,WUHU216PEETBRO,2013-03-19 09:10:00,
2013-03-19 02:15:00,53.0,0.0,30.09,NNE,23,0.0,0.0,0,0.00,,,0.00,WUHU216PEETBRO,2013-03-19 09:15:00,
2013-03-19 02:20:00,53.0,0.0,30.09,NNE,23,0.0,0.0,0,0.00,,,0.00,WUHU216PEETBRO,2013-03-19 09:20:00,
2013-03-19 02:25:00,52.9,0.0,30.09,NNE,23,0.0,0.0,0,0.00,,,0.00,WUHU216PEETBRO,2013-03-19 09:25:00,
2013-03-19 02:30:00,52.9,0.0,30.09,NNE,23,0.0,0.0,0,0.00,,,0.00,WUHU216PEETBRO,2013-03-19 09:30:00,
2013-03-19 02:35:00,52.9,0.0,30.09,NNE,23,0.0,0.0,0,0.00,,,0.00,WUHU216PEETBRO,2013-03-19 09:35:00,
2013-03-19 02:40:00,52.8,0.0,30.09,NNE,23,0.0,0.0,0,0.00,,,0.00,WUHU216PEETBRO,2013-03-19 09:40:00,
2013-03-19 02:45:00,52.8,0.0,30.09,NNE,21,2.6,2.6,0,0.00,,,0.00,WUHU216PEETBRO,2013-03-19 09:45:00,
2013-03-19 02:50:00,52.8,0.0,30.09,NNE,22,0.0,3.4,0,0.00,,,0.00,WUHU216PEETBRO,2013-03-19 09:50:00,
2013-03-19 02:55:00,52.8,0.0,30.09,North,7,2.9,3.5,0,0.00,,,0.00,WUHU216PEETBRO,2013-03-19 09:55:00,
2013-03-19 03:00:00,52.8,0.0,30.09,NNE,21,0.0,3.5,0,0.00,,,0.00,WUHU216PEETBRO,2013-03-19 10:00:00,
2013-03-19 03:05:00,52.8,0.0,30.08,NNE,21,0.0,3.2,0,0.00,,,0.00,WUHU216PEETBRO,2013-03-19 10:05:00,
2013-03-19 03:10:00,52.8,0.0,30.08,NNE,21,0.0,0.0,0,0.00,,,0.00,WUHU216PEETBRO,2013-03-19 10:10:00,
2013-03-19 03:15:00,52.8,0.0,30.08,NNE,21,0.0,0.0,0,0.00,,,0.00,WUHU216PEETBRO,2013-03-19 10:15:00,
2013-03-19 03:20:00,52.8,0.0,30.08,NNE,21,0.0,0.0,0,0.00,,,0.00,WUHU216PEETBRO,2013-03-19 10:20:00,
2013-03-19 03:25:00,52.8,0.0,30.08,NNE,21,0.0,0.0,0,0.00,,,0.00,WUHU216PEETBRO,2013-03-19 10:25:00,
2013-03-19 03:30:00,52.7,0.0,30.08,North,2,3.5,3.5,0,0.00,,,0.00,WUHU216PEETBRO,2013-03-19 10:30:00,
2013-03-19 03:35:00,52.7,0.0,30.08,NNE,22,3.1,4.7,0,0.00,,,0.00,WUHU216PEETBRO,2013-03-19 10:35:00,
2013-03-19 03:40:00,52.9,0.0,30.08,NNE,21,2.9,4.9,0,0.00,,,0.00,WUHU216PEETBRO,2013-03-19 10:40:00,
2013-03-19 03:45:00,53.1,0.0,30.08,NNE,22,0.0,4.9,0,0.00,,,0.00,WUHU216PEETBRO,2013-03-19 10:45:00,
2013-03-19 03:50:00,53.3,0.0,30.08,NNE,22,0.0,4.3,0,0.00,,,0.00,WUHU216PEETBRO,2013-03-19 10:50:00,
2013-03-19 03:55:00,53.3,0.0,30.08,NNE,22,0.0,0.0,0,0.00,,,0.00,WUHU216PEETBRO,2013-03-19 10:55:00,
2013-03-19 04:00:00,53.2,0.0,30.08,NNE,22,0.0,0.0,0,0.00,,,0.00,WUHU216PEETBRO,2013-03-19 11:00:00,
2013-03-19 04:05:00,53.3,0.0,30.08,NNE,22,0.0,0.0,0,0.00,,,0.00,WUHU216PEETBRO,2013-03-19 11:05:00,
2013-03-19 04:10:00,53.4,0.0,30.08,NNE,22,0.0,0.0,0,0.00,,,0.00,WUHU216PEETBRO,2013-03-19 11:10:00,
2013-03-19 04:15:00,53.5,0.0,30.07,NNE,22,0.0,0.0,0,0.00,,,0.00,WUHU216PEETBRO,2013-03-19 11:15:00,
2013-03-19 04:20:00,53.6,0.0,30.07,NNE,22,0.0,0.0,0,0.00,,,0.00,WUHU216PEETBRO,2013-03-19 11:20:00,
2013-03-19 04:25:00,53.6,0.0,30.07,NNE,22,0.0,0.0,0,0.00,,,0.00,WUHU216PEETBRO,2013-03-19 11:25:00,
2013-03-19 04:30:00,53.5,0.0,30.07,NNE,22,0.0,0.0,0,0.00,,,0.00,WUHU216PEETBRO,2013-03-19 11:30:00,
2013-03-19 04:35:00,53.5,0.0,30.07,NNE,22,0.0,0.0,0,0.00,,,0.00,WUHU216PEETBRO,2013-03-19 11:35:00,
2013-03-19 04:40:00,53.6,0.0,30.07,NNE,22,0.0,0.0,0,0.00,,,0.00,WUHU216PEETBRO,2013-03-19 11:40:00,
2013-03-19 04:45:00,53.5,0.0,30.07,NNE,22,0.0,0.0,0,0.00,,,0.00,WUHU216PEETBRO,2013-03-19 11:45:00,
2013-03-19 04:50:00,53.1,0.0,30.07,NNE,22,0.0,0.0,0,0.00,,,0.00,WUHU216PEETBRO,2013-03-19 11:50:00,
2013-03-19 04:55:00,52.9,0.0,30.07,North,1,3.4,3.4,0,0.00,,,0.00,WUHU216PEETBRO,2013-03-19 11:55:00,
2013-03-19 05:00:00,52.8,0.0,30.07,North,7,2.4,3.4,0,0.00,,,0.00,WUHU216PEETBRO,2013-03-19 12:00:00,
2013-03-19 05:05:00,52.8,0.0,30.07,North,8,0.0,3.4,0,0.00,,,0.00,WUHU216PEETBRO,2013-03-19 12:05:00,
2013-03-19 05:10:00,52.7,0.0,30.07,North,8,0.0,3.1,0,0.00,,,0.00,WUHU216PEETBRO,2013-03-19 12:10:00,
2013-03-19 05:15:00,52.5,0.0,30.07,North,8,0.0,0.0,0,0.00,,,0.00,WUHU216PEETBRO,2013-03-19 12:15:00,
2013-03-19 05:20:00,52.3,0.0,30.07,North,8,0.0,0.0,0,0.00,,,0.00,WUHU216PEETBRO,2013-03-19 12:20:00,
2013-03-19 05:25:00,52.6,0.0,30.07,North,8,0.0,0.0,0,0.00,,,0.00,WUHU216PEETBRO,2013-03-19 12:25:00,
2013-03-19 05:30:00,52.6,0.0,30.07,North,8,0.0,0.0,0,0.00,,,0.00,WUHU216PEETBRO,2013-03-19 12:30:00,
2013-03-19 05:35:00,52.8,0.0,30.07,North,8,0.0,0.0,0,0.00,,,0.00,WUHU216PEETBRO,2013-03-19 12:35:00,
2013-03-19 05:40:00,52.8,0.0,30.07,North,8,0.0,0.0,0,0.00,,,0.00,WUHU216PEETBRO,2013-03-19 12:40:00,
2013-03-19 05:45:00,52.8,0.0,30.07,NE,45,5.0,5.2,0,0.00,,,0.00,WUHU216PEETBRO,2013-03-19 12:45:00,
2013-03-19 05:50:00,53.0,0.0,30.07,NE,38,3.2,6.3,0,0.00,,,0.00,WUHU216PEETBRO,2013-03-19 12:50:00,
2013-03-19 05:55:00,52.8,0.0,30.07,NNE,32,3.2,6.3,0,0.00,,,0.00,WUHU216PEETBRO,2013-03-19 12:55:00,
2013-03-19 06:00:00,52.8,0.0,30.07,NE,42,5.2,5.2,0,0.00,,,0.00,WUHU216PEETBRO,2013-03-19 13:00:00,
2013-03-19 06:05:00,52.7,0.0,30.07,NE,53,5.0,5.8,0,0.00,,,0.00,WUHU216PEETBRO,2013-03-19 13:05:00,
2013-03-19 06:10:00,52.7,0.0,30.07,ENE,62,5.0,5.9,0,0.00,,,0.00,WUHU216PEETBRO,2013-03-19 13:10:00,
2013-03-19 06:15:00,52.7,0.0,30.07,NE,49,5.2,6.0,0,0.00,,,0.00,WUHU216PEETBRO,2013-03-19 13:15:00,
2013-03-19 06:20:00,52.8,0.0,30.08,NE,43,4.7,6.0,0,0.00,,,0.00,WUHU216PEETBRO,2013-03-19 13:20:00,
2013-03-19 06:25:00,52.9,0.0,30.08,NE,43,4.7,6.5,0,0.00,,,0.00,WUHU216PEETBRO,2013-03-19 13:25:00,
2013-03-19 06:30:00,53.1,0.0,30.08,NE,55,4.6,6.5,0,0.00,,,0.00,WUHU216PEETBRO,2013-03-19 13:30:00,
2013-03-19 06:35:00,53.2,0.0,30.08,NE,39,3.0,6.0,0,0.00,,,0.00,WUHU216PEETBRO,2013-03-19 13:35:00,
2013-03-19 06:40:00,53.1,0.0,30.08,NNE,25,0.0,5.2,0,0.00,,,0.00,WUHU216PEETBRO,2013-03-19 13:40:00,
2013-03-19 06:45:00,53.1,0.0,30.08,NNE,25,0.0,4.6,0,0.00,,,0.00,WUHU216PEETBRO,2013-03-19 13:45:00,
2013-03-19 06:50:00,53.0,0.0,30.08,NNE,25,0.0,0.0,0,0.00,,,0.00,WUHU216PEETBRO,2013-03-19 13:50:00,
2013-03-19 06:55:00,53.0,0.0,30.09,NNE,25,0.0,0.0,0,0.00,,,0.00,WUHU216PEETBRO,2013-03-19 13:55:00,
2013-03-19 07:00:00,53.0,0.0,30.09,NE,40,3.4,5.3,0,0.00,,,0.00,WUHU216PEETBRO,2013-03-19 14:00:00,
2013-03-19 07:05:00,52.9,0.0,30.09,NNE,31,0.0,5.3,0,0.00,,,0.00,WUHU216PEETBRO,2013-03-19 14:05:00,
2013-03-19 07:10:00,52.9,0.0,30.09,NNE,31,0.0,3.4,0,0.00,,,0.00,WUHU216PEETBRO,2013-03-19 14:10:00,
2013-03-19 07:15:00,52.9,0.0,30.09,NNE,31,0.0,0.0,0,0.00,,,0.00,WUHU216PEETBRO,2013-03-19 14:15:00,
2013-03-19 07:20:00,52.8,0.0,30.09,NNE,31,0.0,0.0,0,0.00,,,0.00,WUHU216PEETBRO,2013-03-19 14:20:00,
2013-03-19 07:25:00,52.8,0.0,30.09,NNE,31,0.0,0.0,0,0.00,,,0.00,WUHU216PEETBRO,2013-03-19 14:25:00,
2013-03-19 07:30:00,52.7,0.0,30.09,NNE,31,0.0,0.0,0,0.00,,,0.00,WUHU216PEETBRO,2013-03-19 14:30:00,
2013-03-19 07:35:00,52.6,0.0,30.09,NNE,31,0.0,0.0,0,0.00,,,0.00,WUHU216PEETBRO,2013-03-19 14:35:00,
2013-03-19 07:40:00,52.8,0.0,30.10,NNE,31,0.0,0.0,0,0.00,,,0.00,WUHU216PEETBRO,2013-03-19 14:40:00,
2013-03-19 07:45:00,53.1,0.0,30.09,NNE,31,0.0,0.0,0,0.00,,,0.00,WUHU216PEETBRO,2013-03-19 14:45:00,
2013-03-19 07:50:00,53.5,0.0,30.09,NNE,31,0.0,0.0,0,0.00,,,0.00,WUHU216PEETBRO,2013-03-19 14:50:00,
2013-03-19 07:55:00,53.8,0.0,30.10,NNE,31,0.0,0.0,0,0.00,,,0.00,WUHU216PEETBRO,2013-03-19 14:55:00,
2013-03-19 08:00:00,54.1,0.0,30.10,NNE,31,0.0,0.0,0,0.00,,,0.00,WUHU216PEETBRO,2013-03-19 15:00:00,
2013-03-19 08:05:00,54.2,0.0,30.10,NNE,31,0.0,0.0,0,0.00,,,0.00,WUHU216PEETBRO,2013-03-19 15:05:00,
2013-03-19 08:10:00,54.0,0.0,30.10,NNE,31,0.0,0.0,0,0.00,,,0.00,WUHU216PEETBRO,2013-03-19 15:10:00,
2013-03-19 08:15:00,53.9,0.0,30.10,NNE,31,0.0,0.0,0,0.00,,,0.00,WUHU216PEETBRO,2013-03-19 15:15:00,
2013-03-19 08:20:00,54.4,0.0,30.10,NNE,31,0.0,0.0,0,0.00,,,0.00,WUHU216PEETBRO,2013-03-19 15:20:00,
2013-03-19 08:25:00,54.4,0.0,30.10,NNE,31,0.0,0.0,0,0.00,,,0.00,WUHU216PEETBRO,2013-03-19 15:25:00,
2013-03-19 08:30:00,54.6,0.0,30.10,NNE,31,0.0,0.0,0,0.00,,,0.00,WUHU216PEETBRO,2013-03-19 15:30:00,
2013-03-19 08:35:00,54.6,0.0,30.11,NNE,31,0.0,0.0,0,0.00,,,0.00,WUHU216PEETBRO,2013-03-19 15:35:00,
2013-03-19 08:40:00,54.5,0.0,30.11,NNE,31,0.0,0.0,0,0.00,,,0.00,WUHU216PEETBRO,2013-03-19 15:40:00,
2013-03-19 08:45:00,54.5,0.0,30.11,NNE,31,0.0,0.0,0,0.00,,,0.00,WUHU216PEETBRO,2013-03-19 15:45:00,
2013-03-19 08:50:00,54.6,0.0,30.11,NNE,31,0.0,0.0,0,0.00,,,0.00,WUHU216PEETBRO,2013-03-19 15:50:00,
2013-03-19 08:55:00,54.8,0.0,30.11,NNE,31,0.0,0.0,0,0.00,,,0.00,WUHU216PEETBRO,2013-03-19 15:55:00,
2013-03-19 09:00:00,55.0,0.0,30.11,NNE,31,0.0,0.0,0,0.00,,,0.00,WUHU216PEETBRO,2013-03-19 16:00:00,
2013-03-19 09:05:00,55.1,0.0,30.12,NNE,31,0.0,0.0,0,0.00,,,0.00,WUHU216PEETBRO,2013-03-19 16:05:00,
2013-03-19 09:10:00,55.0,0.0,30.12,NNE,31,0.0,0.0,0,0.00,,,0.00,WUHU216PEETBRO,2013-03-19 16:10:00,
2013-03-19 09:15:00,55.2,0.0,30.12,NNE,31,0.0,0.0,0,0.00,,,0.00,WUHU216PEETBRO,2013-03-19 16:15:00,
2013-03-19 09:20:00,55.5,0.0,30.12,NNE,31,0.0,0.0,0,0.00,,,0.00,WUHU216PEETBRO,2013-03-19 16:20:00,
2013-03-19 09:25:00,55.7,0.0,30.12,NNE,31,0.0,0.0,0,0.00,,,0.00,WUHU216PEETBRO,2013-03-19 16:25:00,
2013-03-19 09:30:00,56.2,0.0,30.12,NNE,31,0.0,0.0,0,0.00,,,0.00,WUHU216PEETBRO,2013-03-19 16:30:00,
2013-03-19 09:35:00,56.6,0.0,30.12,NNE,31,0.0,0.0,0,0.00,,,0.00,WUHU216PEETBRO,2013-03-19 16:35:00,
2013-03-19 09:40:00,56.7,0.0,30.12,NNE,31,0.0,0.0,0,0.00,,,0.00,WUHU216PEETBRO,2013-03-19 16:40:00,
2013-03-19 09:45:00,57.1,0.0,30.12,NNE,31,2.7,2.7,0,0.00,,,0.00,WUHU216PEETBRO,2013-03-19 16:45:00,
2013-03-19 09:50:00,56.9,0.0,30.12,SE,127,0.0,4.1,0,0.00,,,0.00,WUHU216PEETBRO,2013-03-19 16:50:00,
2013-03-19 09:55:00,57.4,0.0,30.12,ESE,104,0.0,4.1,0,0.00,,,0.00,WUHU216PEETBRO,2013-03-19 16:55:00,
2013-03-19 10:00:00,57.8,0.0,30.12,ESE,104,0.0,3.5,0,0.00,,,0.00,WUHU216PEETBRO,2013-03-19 17:00:00,
2013-03-19 10:05:00,58.1,0.0,30.12,ESE,117,2.9,5.6,0,0.00,,,0.00,WUHU216PEETBRO,2013-03-19 17:05:00,
2013-03-19 10:10:00,58.1,0.0,30.12,ESE,121,0.0,5.6,0,0.00,,,0.00,WUHU216PEETBRO,2013-03-19 17:10:00,
2013-03-19 10:15:00,58.6,0.0,30.13,ESE,121,0.0,5.2,0,0.00,,,0.00,WUHU216PEETBRO,2013-03-19 17:15:00,
2013-03-19 10:20:00,59.0,0.0,30.13,ESE,121,0.0,0.0,0,0.00,,,0.00,WUHU216PEETBRO,2013-03-19 17:20:00,
2013-03-19 10:25:00,59.1,0.0,30.13,East,101,0.0,4.3,0,0.00,,,0.00,WUHU216PEETBRO,2013-03-19 17:25:00,
2013-03-19 10:30:00,59.3,0.0,30.13,SE,143,0.0,4.3,0,0.00,,,0.00,WUHU216PEETBRO,2013-03-19 17:30:00,
2013-03-19 10:35:00,59.5,0.0,30.13,SE,143,0.0,2.5,0,0.00,,,0.00,WUHU216PEETBRO,2013-03-19 17:35:00,
2013-03-19 10:40:00,59.8,0.0,30.13,SE,143,0.0,0.0,0,0.00,,,0.00,WUHU216PEETBRO,2013-03-19 17:40:00,
2013-03-19 10:45:00,60.1,0.0,30.13,East,84,0.0,4.2,0,0.00,,,0.00,WUHU216PEETBRO,2013-03-19 17:45:00,
2013-03-19 10:50:00,60.3,0.0,30.13,East,84,0.0,4.2,0,0.00,,,0.00,WUHU216PEETBRO,2013-03-19 17:50:00,
2013-03-19 10:55:00,60.6,0.0,30.13,ENE,57,4.2,4.2,0,0.00,,,0.00,WUHU216PEETBRO,2013-03-19 17:55:00,
2013-03-19 11:00:00,60.7,0.0,30.13,ENE,70,0.0,5.0,0,0.00,,,0.00,WUHU216PEETBRO,2013-03-19 18:00:00,
2013-03-19 11:05:00,60.9,0.0,30.13,East,94,3.0,5.0,0,0.00,,,0.00,WUHU216PEETBRO,2013-03-19 18:05:00,
2013-03-19 11:10:00,61.0,0.0,30.13,SE,138,0.0,4.7,0,0.00,,,0.00,WUHU216PEETBRO,2013-03-19 18:10:00,
2013-03-19 11:15:00,61.3,0.0,30.12,East,95,0.0,4.5,0,0.00,,,0.00,WUHU216PEETBRO,2013-03-19 18:15:00,
2013-03-19 11:20:00,61.5,0.0,30.12,NE,56,0.0,4.2,0,0.00,,,0.00,WUHU216PEETBRO,2013-03-19 18:20:00,
2013-03-19 11:25:00,61.7,0.0,30.12,SSE,149,0.0,6.2,0,0.00,,,0.00,WUHU216PEETBRO,2013-03-19 18:25:00,
2013-03-19 11:30:00,62.2,0.0,30.12,East,93,0.0,6.2,0,0.00,,,0.00,WUHU216PEETBRO,2013-03-19 18:30:00,
2013-03-19 11:35:00,61.8,0.0,30.12,NE,55,3.2,7.5,0,0.00,,,0.00,WUHU216PEETBRO,2013-03-19 18:35:00,
2013-03-19 11:40:00,62.3,0.0,30.12,East,90,2.1,7.5,0,0.00,,,0.00,WUHU216PEETBRO,2013-03-19 18:40:00,
2013-03-19 11:45:00,63.0,0.0,30.12,East,90,0.0,3.4,0,0.00,,,0.00,WUHU216PEETBRO,2013-03-19 18:45:00,
2013-03-19 11:50:00,63.5,0.0,30.12,East,90,0.0,0.0,0,0.00,,,0.00,WUHU216PEETBRO,2013-03-19 18:50:00,
2013-03-19 11:55:00,63.6,0.0,30.13,East,90,0.0,0.0,0,0.00,,,0.00,WUHU216PEETBRO,2013-03-19 18:55:00,
2013-03-19 12:00:00,63.4,0.0,30.13,East,90,0.0,0.0,0,0.00,,,0.00,WUHU216PEETBRO,2013-03-19 19:00:00,
2013-03-19 12:05:00,64.4,0.0,30.12,East,90,0.0,0.0,0,0.00,,,0.00,WUHU216PEETBRO,2013-03-19 19:05:00,
2013-03-19 12:10:00,64.0,0.0,30.12,SE,124,2.9,5.5,0,0.00,,,0.00,WUHU216PEETBRO,2013-03-19 19:10:00,
2013-03-19 12:15:00,63.8,0.0,30.13,SSW,196,6.0,11.3,0,0.00,,,0.00,WUHU216PEETBRO,2013-03-19 19:15:00,
2013-03-19 12:20:00,63.6,0.0,30.13,South,179,7.0,11.3,0,0.00,,,0.00,WUHU216PEETBRO,2013-03-19 19:20:00,
2013-03-19 12:25:00,63.3,0.0,30.12,South,176,5.3,10.3,0,0.00,,,0.00,WUHU216PEETBRO,2013-03-19 19:25:00,
2013-03-19 12:30:00,63.6,0.0,30.12,SSE,159,0.0,10.3,0,0.00,,,0.00,WUHU216PEETBRO,2013-03-19 19:30:00,
2013-03-19 12:35:00,64.7,0.0,30.13,SSW,193,3.4,7.8,0,0.00,,,0.00,WUHU216PEETBRO,2013-03-19 19:35:00,
2013-03-19 12:40:00,64.7,0.0,30.13,SE,135,5.4,7.1,0,0.00,,,0.00,WUHU216PEETBRO,2013-03-19 19:40:00,
2013-03-19 12:45:00,64.6,0.0,30.12,South,170,2.9,7.1,0,0.00,,,0.00,WUHU216PEETBRO,2013-03-19 19:45:00,
2013-03-19 12:50:00,65.0,0.0,30.12,South,172,0.0,6.6,0,0.00,,,0.00,WUHU216PEETBRO,2013-03-19 19:50:00,
2013-03-19 12:55:00,65.4,0.0,30.12,SSE,153,3.4,7.0,0,0.00,,,0.00,WUHU216PEETBRO,2013-03-19 19:55:00,
2013-03-19 13:00:00,64.7,0.0,30.12,SE,141,0.0,7.6,0,0.00,,,0.00,WUHU216PEETBRO,2013-03-19 20:00:00,
2013-03-19 13:05:00,65.7,0.0,30.12,ESE,114,3.3,7.6,0,0.00,,,0.00,WUHU216PEETBRO,2013-03-19 20:05:00,
2013-03-19 13:10:00,64.8,0.0,30.12,South,170,5.0,8.6,0,0.00,,,0.00,WUHU216PEETBRO,2013-03-19 20:10:00,
2013-03-19 13:15:00,65.1,0.0,30.12,SSW,208,0.0,8.6,0,0.00,,,0.00,WUHU216PEETBRO,2013-03-19 20:15:00,
2013-03-19 13:20:00,65.7,0.0,30.12,SSW,208,0.0,6.5,0,0.00,,,0.00,WUHU216PEETBRO,2013-03-19 20:20:00,